THOR ABLESTAR DEB, 263

Orbit data source: Space-Track

THOR ABLESTAR DEB, 263 is space debris in LEO originally from a launch on Thu, 29 Jun 1961 UTC launched from the Air Force Eastern Test Range (AFETR). Debris objects in space refer to the collection of defunct objects orbiting the Earth. Examples of debris include non-operational satellites, rocket bodies, and fragments generated from explosions, collisions, or faulty payload assembly.

Loading next visibility...
Identifier
263, 1961-015CK
Orbit
LEO
Country
Flag of USUS
Related business
Manufacturer
Unknown
Mission
Spacecraft
Bus & Motor
Unknown
Mass
Unknown
Launch date (UTC)
1961-06-29 (65 years ago)
Launch vehicle
Unknown
Launch site
Air Force Eastern Test Range (AFETR)
Object type
Payload
Rocket body
Debris
Shape & HBR
Unknown shape, 0.2 m
Radar Cross Section
Small (<0.1 m²)

Expand to show TLE details & history
Last TLE update: 8 hours ago

TLE from 8 hours ago
0 THOR ABLESTAR DEB
1   263U 61015CK  26145.38166634  .00000790  00000-0  22745-3 0  9998
2   263  66.5277 189.8491 0105072 285.9255 173.0254 14.47199901379991
Epoch: 2026-05-25T09:09Z
TLE epoch observation values (Epoch: 2026-05-25T09:09:35.971Z)
Latitude
65.0331°
Longitude
-78.60065°
Altitude
819.364 km
Speed
7.411 km/s
True Right ascension
20h 07m 04s
True Declination
64° 54' 09"
Sunlit
Object was in daylight at epoch
Visualization orbit readout
Latitude
Unknown
Longitude
Unknown
Altitude
Unknown
Speed
Unknown
Apparent Right ascension
Unknown
Apparent Declination
Unknown
Sunlit
N/A
Visualization observer readout
Local Sidereal Time
02:45:06
Azimuth
Unknown
Elevation
Unknown
Doppler factor
Unknown
Orbital elements
Apogee altitude
807.911 km
Perigee altitude
658.47 km
Semi-major axis
7,111.328 km
Eccentricity
0.01051
Inclination
66.5277°
RAAN
189.8491°
Arg. of periapsis
285.9255°
True anomaly
173.16972°
Mean anomaly
173.0254°
Eccentric anomaly
173.09775°
Mean motion
3.61924 °/min
Orbital period
99.47 mins
BSTAR
0.00022745
Loading maneuver chart data...
Computing Atmospheric mass density...

Documentation

Showing up to 5 results
|